Regional Weather Roundup
Issued by NWS Midland/Odessa, TX

Skip options and go directly to product.
Home | Oldest Version | Previous Version | Current Version | All | Text Only | Save Text | Print | Product List | Glossary On

Skip product version selection by date and time.   
098
ASUS44 KMAF 080610
RWRMAF
MIDLAND AREA WEATHER ROUNDUP
NATIONAL WEATHER SERVICE MIDLAND TX
100 AM CDT WED JUL 08 2015

...IN SOUTHWEST TEXAS AND SOUTHEAST NEW MEXICO...

CITY           SKY/WX    TMP DP  RH WIND       PRES   REMARKS
ALPINE         CLOUDY    68  63  84 SE6       30.19S
ANDREWS        FAIR      65  65 100 E6        30.06F
ARTESIA        MOCLDY    68  64  88 SE5       30.08F
BIG SPRING     CLOUDY    71  67  88 N9        30.06F
CARLSBAD       MOCLDY    69  64  84 NE3       30.05F
DRYDEN           N/A     73  70  90 W9        29.96F
FORT STOCKTON  MOCLDY    72  67  84 NE6       30.06S
GUAD PASS      NOT AVBL
HOBBS          MOCLDY    64  64 100 E5        30.10S
MARFA          CLOUDY   N/A N/A N/A CALM      30.18R THUNDER
MIDLAND AIRPK  CLOUDY    72  65  80 E10       30.05F
MIDLAND INTL   CLOUDY    71  65  81 NE8       30.05F
ODESSA         MOCLDY    71  65  81 E10       30.05F
PECOS          CLOUDY    74  67  77 SE7       30.03F
PRESIDIO       CLOUDY    76  66  72 MISG      30.05R THUNDER
SEMINOLE       MOCLDY    66  64  92 E7        30.06F
SNYDER         CLOUDY    66  64  93 N9        30.05F
WINK           CLOUDY    73  64  73 E14       29.99F
$$
...OTHER STATIONS IN TEXAS...

CITY           SKY/WX    TMP DP  RH WIND       PRES   REMARKS
ABILENE        CLOUDY    69  68  96 N10       29.99F
AMARILLO       PTCLDY    60  57  89 CALM      30.10F FOG
AUSTIN         MOCLDY    78  76  93 S13G22    29.97F
BROWNSVILLE    MOCLDY    81  77  88 S13       30.00S
CORPUS CHRISTI CLOUDY    82  77  84 S15       30.00S
DALLAS FTW     MOCLDY    83  71  67 S20G26    29.92F
DEL RIO        CLOUDY    79  72  79 SE7       29.91S
EL PASO        MOCLDY    70  61  73 VRB3      30.03F
HOUSTON INT    MOCLDY    82  77  84 S8        30.04S
LUBBOCK        CLOUDY    64  62  93 NE6       30.07F
SAN ANGELO     CLOUDY    73  69  87 W6        29.98F
SAN ANTONIO    CLOUDY    80  74  81 SE18      29.99F
WACO           CLOUDY    80  73  79 S17       29.96F
WICHITA FALLS  NOT AVBL
$$
...OTHER LOCATIONS IN NEW MEXICO...

CITY           SKY/WX    TMP DP  RH WIND       PRES   REMARKS
ALAMAGORDO     PTCLDY    64  61  88 NW5       30.08S
ALBUQUERQUE    CLOUDY    62  56  80 E15       30.18F
CANNON AFB     PTCLDY    61  60  99 E5        30.11F FOG
CLOVIS         MOCLDY    61  57  88 SE5         N/A
HOLLOMAN AFB   PTCLDY    67  59  75 S2        30.05S
ROSWELL        PTCLDY    67  60  78 CALM      30.09F
RUIDOSO        CLOUDY    57  57 100 S5        30.28F FOG
SANTA FE       LGT RAIN  57  53  86 SW12      30.26R
TRUTH OR CONSE PTCLDY    72  49  44 CALM      30.06F
TUCUMCARI      CLOUDY    63  60  90 E5        30.08F FOG
$$

USA.gov is the U.S. government's official web portal to all federal, state and local government web resources and services.